This is the latest recevied weather packets stored in our database for station/object DL0GY-13. If no packets are shown the sender has not sent any weather packets the latest 10 day(s).
| Time | Temp. | Humidity | Pressure | Rain* | Wind** | Luminosity | Snow |
|---|---|---|---|---|---|---|---|
| 1777647634 | 23.89° C | 27% | 1021.4 hPa | 0 mm | - | - | - |
| 1777646433 | 23.89° C | 26% | 1021.6 hPa | 0 mm | - | - | - |
| 1777645833 | 23.89° C | 26% | 1021.5 hPa | 0 mm | - | - | - |
| 1777645233 | 23.89° C | 26% | 1021.6 hPa | 0 mm | - | - | - |
| 1777644634 | 23.89° C | 26% | 1021.8 hPa | 0 mm | - | - | - |
| 1777644033 | 23.89° C | 26% | 1021.8 hPa | 0 mm | - | - | - |
| 1777643434 | 23.89° C | 26% | 1022 hPa | 0 mm | - | - | - |
| 1777642834 | 23.89° C | 26% | 1022.2 hPa | 0 mm | - | - | - |
| 1777642234 | 23.89° C | 26% | 1022.4 hPa | 0 mm | - | - | - |
| 1777641634 | 23.89° C | 25% | 1022.7 hPa | 0 mm | - | - | - |
| 1777641034 | 23.89° C | 25% | 1022.7 hPa | 0 mm | - | - | - |
| 1777640433 | 23.89° C | 25% | 1022.8 hPa | 0 mm | - | - | - |
| 1777639834 | 23.89° C | 25% | 1022.9 hPa | 0 mm | - | - | - |
| 1777638634 | 24.44° C | 24% | 1023.3 hPa | 0 mm | - | - | - |
| 1777638034 | 26.11° C | 22% | 1023.6 hPa | 0 mm | - | - | - |
| 1777637434 | 28.89° C | 20% | 1023.7 hPa | 0 mm | - | - | - |
| 1777636833 | 30° C | 20% | 1023.6 hPa | 0 mm | - | - | - |
| 1777636233 | 29.44° C | 21% | 1023.9 hPa | 0 mm | - | - | - |
| 1777635634 | 29.44° C | 21% | 1023.8 hPa | 0 mm | - | - | - |
| 1777635034 | 30° C | 20% | 1024.2 hPa | 0 mm | - | - | - |
| 1777634434 | 29.44° C | 22% | 1024.3 hPa | 0 mm | - | - | - |
| 1777633834 | 28.33° C | 22% | 1024.6 hPa | 0 mm | - | - | - |
| 1777633234 | 27.78° C | 22% | 1024.6 hPa | 0 mm | - | - | - |
| 1777632633 | 27.78° C | 22% | 1024.7 hPa | 0 mm | - | - | - |
| 1777632034 | 27.22° C | 22% | 1024.9 hPa | 0 mm | - | - | - |
* Rain latest hour (hover to see other rain measurements)
** Current wind speed in m/s (hover to see current wind gust speed)